User: anonymous   Login
Location: Oshawa
(43.9000°N, 78.8670°W)
Time: 03:32:41
(UTC-05:00)
Language:

Iridium 98 - Orbit

View from above orbital plane
View from above orbital plane
View from above satellite
View from above satellite

Ground track
Ground track

The orbit data is extracted from the following two-line orbital elements,

1 27451U 02031B   16341.51167397  .00000173  00000-0  54585-4 0  9991
2 27451  86.3963 102.7807 0002169  97.7053 330.5176 14.34214610763681
Epoch (UTC): 06 December 2016 12:16:48
Eccentricity: 0.0002169
inclination: 86.3963°
perigee height: 776 km
apogee height: 779 km
right ascension of ascending node: 102.7807°
argument of perigee: 97.7053°
revolutions per day: 14.34214610
mean anomaly at epoch: 330.5176°
orbit number at epoch: 76368

The dashed part of the orbit path shows where the satellite is in the earth's shadow,  

DLR